Weather History for Abilene, TX

Change the Weather History Date:

Sunday, October 20, 2013

  Actual Average Record
Temperature  
Mean Temperature 61 °F 65 °F  
Max Temperature 77 °F 76 °F 93 °F (1979)
Min Temperature 45 °F 53 °F 29 °F (1976)
Degree Days  
Heating Degree Days 4 3  
Month to date heating degree days 53 42  
Since 1 July heating degree days 53 53  
Cooling Degree Days 0 3  
Month to date cooling degree days 112 92  
Year to date cooling degree days 2681 2363  
Growing Degree Days 11 (Base 50)    
Moisture  
Dew Point 47 °F    
Average Humidity 61    
Maximum Humidity 76    
Minimum Humidity 46    
Precipitation  
Precipitation 0.00 in 0.10 in 1.73 in (1983)
Month to date precipitation 1.40 1.98  
Year to date precipitation 20.91 21.18  
Sea Level Pressure  
Sea Level Pressure 29.90 in    
Wind  
Wind Speed 12 mph (South)    
Max Wind Speed 24 mph    
Max Gust Speed 32 mph    
Visibility 10 miles    
Events      
T = Trace of Precipitation, MM = Missing Value Source: NWS Daily Summary

Daily Weather History Graph

Daily Weather History Graph

Search for Another Location

Airport:

Trip Planner

Search our weather history database for the weather conditions in past years. The results will help you decide how hot, cold, wet, or windy it might be!

Date:

Astronomy

Oct. 20, 2013 Rise Set
Actual Time 7:46 AM CDT 6:59 PM CDT
Civil Twilight 7:21 AM CDT 7:24 PM CDT
Nautical Twilight 6:52 AM CDT 7:53 PM CDT
Astronomical Twilight 6:24 AM CDT 8:21 PM CDT
Moon 8:16 PM CDT (10/20) 9:19 AM CDT (10/20)
Length of Visible Light 12h 03m
Length of Day
11h 13m
Full, 97% of the Moon is Illuminated
Oct 20
Full
Oct 26
Last Quarter
Nov 3
New
Nov 9
First Quarter
Nov 17
Full

Hourly Weather History & Observations

Time (CDT) Temp. Windchill Dew Point Humidity Pressure Visibility Wind Dir Wind Speed Gust Speed Precip Events Conditions
12:52 AM 46.0 °F 41.9 °F 37.9 °F 73% 30.05 in 10.0 mi SE 8.1 mph - N/A   Clear
1:52 AM 46.0 °F 43.1 °F 37.9 °F 73% 30.02 in 10.0 mi SSE 5.8 mph - N/A   Clear
2:52 AM 45.0 °F 41.2 °F 37.9 °F 76% 30.00 in 10.0 mi South 6.9 mph - N/A   Clear
3:52 AM 46.9 °F - 37.9 °F 71% 29.98 in 10.0 mi SE 8.1 mph - N/A   Clear
4:52 AM 48.9 °F - 37.9 °F 66% 29.95 in 10.0 mi South 5.8 mph - N/A   Clear
5:52 AM 50.0 °F - 39.0 °F 66% 29.95 in 10.0 mi SSW 3.5 mph - N/A   Clear
6:52 AM 50.0 °F - 39.9 °F 68% 29.95 in 10.0 mi SSW 8.1 mph - N/A   Clear
7:52 AM 51.1 °F - 39.9 °F 66% 29.96 in 10.0 mi Calm Calm - N/A   Clear
8:52 AM 55.0 °F - 43.0 °F 64% 29.96 in 10.0 mi SSW 10.4 mph - N/A   Clear
9:52 AM 57.9 °F - 45.0 °F 62% 29.96 in 10.0 mi SSW 10.4 mph - N/A   Clear
10:52 AM 62.1 °F - 46.9 °F 58% 29.94 in 10.0 mi SSW 19.6 mph 26.5 mph N/A   Clear
11:52 AM 66.0 °F - 48.9 °F 54% 29.92 in 10.0 mi SSW 18.4 mph 25.3 mph N/A   Clear
12:52 PM 68.0 °F - 51.1 °F 55% 29.91 in 10.0 mi SSW 15.0 mph 24.2 mph N/A   Clear
1:52 PM 71.1 °F - 52.0 °F 51% 29.87 in 10.0 mi SW 11.5 mph - N/A   Clear
2:52 PM 73.9 °F - 54.0 °F 50% 29.83 in 10.0 mi South 18.4 mph 24.2 mph N/A   Clear
3:52 PM 75.9 °F - 55.0 °F 48% 29.80 in 10.0 mi SSW 13.8 mph - N/A   Clear
4:52 PM 75.9 °F - 54.0 °F 46% 29.79 in 10.0 mi South 17.3 mph 24.2 mph N/A   Clear
5:52 PM 75.0 °F - 53.1 °F 46% 29.78 in 10.0 mi South 12.7 mph - N/A   Clear
6:52 PM 72.0 °F - 54.0 °F 53% 29.79 in 10.0 mi South 10.4 mph - N/A   Clear
7:52 PM 68.0 °F - 54.0 °F 61% 29.81 in 10.0 mi South 9.2 mph - N/A   Clear
8:52 PM 66.9 °F - 54.0 °F 63% 29.82 in 10.0 mi South 11.5 mph - N/A   Clear
9:52 PM 66.0 °F - 53.1 °F 63% 29.82 in 10.0 mi South 13.8 mph - N/A   Clear
10:52 PM 64.9 °F - 52.0 °F 63% 29.83 in 10.0 mi South 12.7 mph 24.2 mph N/A   Clear
11:52 PM 64.0 °F - 53.1 °F 67% 29.82 in 10.0 mi South 19.6 mph 28.8 mph N/A   Clear